Location: Observatory
(52.1446°N, 0.4624°W)
Time: 16:03:21
(UTC+01:00)

ISS - Pass Details

Date: 24 May 2020
Orbit: 417 x 420 km, 51.6° (Epoch: 26 May)

Event Time Altitude Azimuth Distance (km) Brightness Sun altitude
Rises 00:29:26 0° 282° (WNW) 2,369 0.3 -16.8°
Reaches altitude 10° 00:31:41 10° 271° (W) 1,503 -0.9 -16.8°
Enters shadow 00:33:54 26° 235° (SW) 866 -2.4 -16.8°
